QFA6071 YPAD-YPAD

Flight info

Callsign QFA6071
Flight time N/A
Altitude 35000
Route ORBUN H246 DAMOB/N0465F370 H246 GUGAB/N0471F360 G222 AGAGO/N0466F370 A461 LEC/N0468F380 J37 WHA DCT ISROV DCT LAROO DCT KAKLU
Aircraft B738/M-SDE2E3FGHIRWXY/LB1

Departure

Time 2025-09-05 12:38
Airport Adelaide International Airport (YPAD)

Arrival

Time N/A
Airport Adelaide International Airport (YPAD)
Time Latitude Longitude Altitude Speed Heading
2025-09-05 12:12 -34.94034 138.53700 25 ft 0 kts 320°
2025-09-05 12:28 -34.94054 138.53718 30 ft 3 kts 329°
2025-09-05 12:29 -34.94089 138.53735 26 ft 3 kts 354°
2025-09-05 12:29 -34.94125 138.53726 28 ft 2 kts 45°
2025-09-05 12:30 -34.94128 138.53721 26 ft 0 kts 50°
2025-09-05 12:31 -34.94121 138.53733 28 ft 7 kts 53°
2025-09-05 12:32 -34.94097 138.53918 27 ft 3 kts 189°
2025-09-05 12:32 -34.94131 138.53892 26 ft 7 kts 213°
2025-09-05 12:33 -34.94244 138.53721 26 ft 26 kts 230°
2025-09-05 12:33 -34.94513 138.53288 25 ft 30 kts 264°
2025-09-05 12:34 -34.94514 138.52939 26 ft 20 kts 219°
2025-09-05 12:34 -34.94852 138.52622 25 ft 33 kts 217°
2025-09-05 12:35 -34.95201 138.52294 26 ft 30 kts 220°
2025-09-05 12:36 -34.95579 138.51781 26 ft 25 kts 230°
2025-09-05 12:36 -34.95687 138.51639 28 ft 23 kts 206°
2025-09-05 12:36 -34.95784 138.51822 28 ft 27 kts 50°
2025-09-05 12:37 -34.94505 138.53725 386 ft 197 kts 52°
2025-09-05 12:37 -34.92954 138.55989 2257 ft 196 kts 47°
2025-09-05 12:38 -34.90697 138.59171 4400 ft 229 kts 45°
2025-09-05 12:38 -34.88935 138.61681 5966 ft 236 kts 45°
2025-09-05 12:39 -34.86728 138.64839 7541 ft 259 kts 45°
2025-09-05 12:40 -34.82705 138.69600 10097 ft 284 kts 15°
2025-09-05 12:40 -34.78641 138.70211 11047 ft 327 kts 357°
2025-09-05 12:40 -34.76276 138.70255 11461 ft 350 kts 356°
2025-09-05 12:41 -34.71299 138.70344 13345 ft 362 kts 357°
2025-09-05 12:41 -34.66178 138.70486 15026 ft 374 kts 357°
2025-09-05 12:42 -34.60933 138.70658 16523 ft 385 kts 356°
2025-09-05 12:42 -34.55678 138.70840 17909 ft 395 kts 356°
2025-09-05 12:43 -34.50235 138.71030 19126 ft 405 kts 356°
2025-09-05 12:44 -34.41665 138.71330 20846 ft 417 kts 356°
2025-09-05 12:44 -34.39736 138.71398 21201 ft 419 kts 356°